Location: Burbank
(38.7788°N, 114.0429°W)
Time: 13:56:51
(UTC+00:00)

Injun/Solrad 3 - Pass Details

Date: 15 May 2026
Orbit: 867 x 989 km, 66.8° (Epoch: 8 June)

Event Time Altitude Azimuth Distance (km) Brightness Sun altitude
Rises 09:02:28 0° 324° (NW) 3,692 11.4 -28.6°
Reaches altitude 10° 09:05:10 10° 317° (NW) 2,747 10.6 -28.4°
Enters shadow 09:09:33 35° 283° (WNW) 1,534 8.9 -28.0°
Maximum altitude 09:11:08 41° 250° (WSW) 1,397 - -27.9°
Drops below altitude 10° 09:17:04 10° 182° (S) 2,728 - -27.3°
Sets 09:19:45 0° 176° (S) 3,663 - -27.1°
